This is the latest recevied weather packets stored in our database for station/object CE3TDM-10. If no packets are shown the sender has not sent any weather packets the latest 10 day(s).
| Time | Temp. | Humidity | Pressure | Rain* | Wind** | Luminosity | Snow |
|---|---|---|---|---|---|---|---|
| 1787643240 | 23.89° C | 37% | 921.7 hPa | - | - | - | - |
| 1787642340 | 23.89° C | 37% | 921.7 hPa | - | - | - | - |
| 1787641440 | 23.89° C | 38% | 921.8 hPa | - | - | - | - |
| 1787640539 | 23.89° C | 37% | 921.5 hPa | - | - | - | - |
| 1787639639 | 23.89° C | 37% | 921.7 hPa | - | - | - | - |
| 1787638857 | 23.89° C | 37% | 922.1 hPa | - | - | - | - |
| 1787638739 | 23.89° C | 37% | 922.1 hPa | - | - | - | - |
| 1787637839 | 23.89° C | 37% | 922.2 hPa | - | - | - | - |
| 1787636939 | 23.89° C | 37% | 922.6 hPa | - | - | - | - |
| 1787636039 | 23.89° C | 37% | 922.3 hPa | - | - | - | - |
| 1787635139 | 24.44° C | 37% | 922.6 hPa | - | - | - | - |
| 1787634239 | 24.44° C | 36% | 923.1 hPa | - | - | - | - |
| 1787633339 | 24.44° C | 37% | 923.6 hPa | - | - | - | - |
| 1787631539 | 25° C | 36% | 922.3 hPa | - | - | - | - |
| 1787630639 | 25.56° C | 35% | 922.6 hPa | - | - | - | - |
| 1787629739 | 26.67° C | 35% | 922.8 hPa | - | - | - | - |
| 1787628839 | 26.67° C | 35% | 923 hPa | - | - | - | - |
| 1787627939 | 27.22° C | 35% | 923.3 hPa | - | - | - | - |
| 1787626138 | 28.33° C | 37% | 922.8 hPa | - | - | - | - |
| 1787625238 | 25.56° C | 42% | 922.9 hPa | - | - | - | - |
| 1787623438 | 23.89° C | 40% | 922.4 hPa | - | - | - | - |
| 1787622538 | 23.33° C | 40% | 922.6 hPa | - | - | - | - |
| 1787621638 | 23.33° C | 40% | 922.8 hPa | - | - | - | - |
| 1787620738 | 23.33° C | 40% | 923 hPa | - | - | - | - |
| 1787619838 | 23.33° C | 40% | 922 hPa | - | - | - | - |
* Rain since midnight (hover to see other rain measurements)
** Current wind speed in m/s (hover to see current wind gust speed)